TGW551 WIMN-WSSS

Flight info

Callsign TGW551
Flight time 1h 3m
Altitude 35000
Route MEDIA W12 PKU R469 ASUNA ASUNA2B
Aircraft A320/M-SDE3FGHIRWY/LB1

Departure

Time 2026-05-07 04:47
Airport Silangit Airport (WIMN)

Arrival

Time 2026-05-07 05:51
Airport Singapore Changi Airport (WSSS)
Time Latitude Longitude Altitude Speed Heading
2026-05-07 04:17 2.26168 98.98722 4543 ft 0 kts
2026-05-07 04:38 2.26163 98.98722 4539 ft 4 kts
2026-05-07 04:38 2.26137 98.98725 4545 ft 4 kts 330°
2026-05-07 04:38 2.26121 98.98743 4545 ft 3 kts 275°
2026-05-07 04:38 2.26120 98.98746 4545 ft 1 kts 272°
2026-05-07 04:39 2.26121 98.98746 4545 ft 0 kts 272°
2026-05-07 04:41 2.26120 98.98746 4545 ft 0 kts 272°
2026-05-07 04:41 2.26121 98.98732 4538 ft 4 kts 271°
2026-05-07 04:42 2.26123 98.98686 4551 ft 9 kts 274°
2026-05-07 04:42 2.26120 98.98610 4550 ft 11 kts 236°
2026-05-07 04:42 2.26062 98.98601 4545 ft 5 kts 183°
2026-05-07 04:42 2.26055 98.98600 4558 ft 0 kts 183°
2026-05-07 04:43 2.26052 98.98600 4558 ft 1 kts 183°
2026-05-07 04:43 2.26042 98.98600 4558 ft 1 kts 183°
2026-05-07 04:43 2.26036 98.98599 4560 ft 1 kts 183°
2026-05-07 04:44 2.26008 98.98598 4569 ft 7 kts 183°
2026-05-07 04:44 2.25973 98.98535 4575 ft 14 kts 271°
2026-05-07 04:44 2.25977 98.98431 4573 ft 16 kts 272°
2026-05-07 04:44 2.25984 98.98309 4572 ft 19 kts 274°
2026-05-07 04:45 2.25990 98.98163 4574 ft 23 kts 272°
2026-05-07 04:45 2.25996 98.97994 4579 ft 26 kts 271°
2026-05-07 04:45 2.26008 98.97809 4581 ft 28 kts 275°
2026-05-07 04:45 2.26018 98.97617 4583 ft 24 kts 271°
2026-05-07 04:46 2.25987 98.97466 4583 ft 17 kts 258°
2026-05-07 04:46 2.26018 98.97446 4582 ft 5 kts 28°
2026-05-07 04:46 2.26022 98.97472 4587 ft 1 kts 91°
2026-05-07 04:46 2.26022 98.97490 4586 ft 5 kts 91°
2026-05-07 04:47 2.26011 98.97720 4584 ft 76 kts 93°
2026-05-07 04:47 2.25972 98.98521 4573 ft 150 kts 93°
2026-05-07 04:47 2.25932 98.99707 4918 ft 178 kts 92°
2026-05-07 04:47 2.25856 99.00958 5725 ft 184 kts 95°
2026-05-07 04:48 2.25760 99.02256 6412 ft 194 kts 93°
2026-05-07 04:48 2.25697 99.03675 6627 ft 216 kts 92°
2026-05-07 04:48 2.25637 99.05260 6838 ft 241 kts 92°
2026-05-07 04:48 2.25570 99.07015 7192 ft 264 kts 92°
2026-05-07 04:49 2.25491 99.08920 7673 ft 282 kts 92°
2026-05-07 04:49 2.25402 99.10890 8432 ft 286 kts 92°
2026-05-07 04:49 2.25310 99.12893 9246 ft 290 kts 93°
2026-05-07 04:49 2.25217 99.14918 9985 ft 296 kts 92°
2026-05-07 04:50 2.25119 99.17055 10232 ft 319 kts 93°
2026-05-07 04:50 2.25014 99.19345 10450 ft 340 kts 93°
2026-05-07 04:50 2.24905 99.21739 10996 ft 348 kts 93°
2026-05-07 04:50 2.24795 99.24166 11630 ft 351 kts 92°
2026-05-07 04:51 2.24686 99.26617 12295 ft 355 kts 92°
2026-05-07 04:51 2.24576 99.29092 12964 ft 358 kts 92°
2026-05-07 04:51 2.24462 99.31590 13630 ft 361 kts 92°
2026-05-07 04:51 2.24345 99.34104 14190 ft 364 kts 92°
2026-05-07 04:52 2.24226 99.36639 14752 ft 366 kts 92°
2026-05-07 04:52 2.24107 99.39189 15304 ft 369 kts 92°
2026-05-07 04:52 2.23988 99.41759 15847 ft 372 kts 92°
2026-05-07 04:52 2.23868 99.44345 16390 ft 374 kts 92°
2026-05-07 04:53 2.23724 99.46952 16921 ft 377 kts 96°
2026-05-07 04:53 2.23220 99.49534 17459 ft 380 kts 106°
2026-05-07 04:53 2.22254 99.52007 17994 ft 384 kts 116°
2026-05-07 04:53 2.21011 99.54341 18489 ft 387 kts 117°
2026-05-07 04:54 2.19743 99.56730 18940 ft 390 kts 117°
2026-05-07 04:54 2.18457 99.59171 19412 ft 393 kts 117°
2026-05-07 04:54 2.17198 99.61567 19853 ft 396 kts 117°
2026-05-07 04:54 2.15913 99.64011 20349 ft 399 kts 117°
2026-05-07 04:55 2.14615 99.66477 20838 ft 402 kts 117°
2026-05-07 04:55 2.13312 99.68953 21317 ft 405 kts 117°
2026-05-07 04:55 2.11995 99.71452 21756 ft 408 kts 117°
2026-05-07 04:55 2.10648 99.74000 22190 ft 411 kts 117°
2026-05-07 04:56 2.09328 99.76499 22620 ft 413 kts 117°
2026-05-07 04:56 2.07978 99.79051 23050 ft 416 kts 117°
2026-05-07 04:56 2.06622 99.81615 23436 ft 419 kts 117°
2026-05-07 04:56 2.05254 99.84196 23767 ft 421 kts 117°
2026-05-07 04:57 2.03882 99.86790 24086 ft 424 kts 117°
2026-05-07 04:57 2.02502 99.89402 24405 ft 426 kts 117°
2026-05-07 04:57 2.01114 99.92028 24710 ft 428 kts 117°
2026-05-07 04:57 1.99720 99.94671 25017 ft 430 kts 117°
2026-05-07 04:58 1.98321 99.97326 25324 ft 432 kts 117°
2026-05-07 04:58 1.96916 99.99989 25621 ft 435 kts 117°
2026-05-07 04:58 1.95490 100.02663 25911 ft 437 kts 120°
2026-05-07 04:58 1.93727 100.05143 26191 ft 440 kts 130°
2026-05-07 04:59 1.91539 100.07288 26472 ft 442 kts 136°
2026-05-07 04:59 1.89259 100.09373 26755 ft 444 kts 136°
2026-05-07 04:59 1.86977 100.11467 27023 ft 446 kts 136°
2026-05-07 04:59 1.84689 100.13572 27289 ft 448 kts 136°
2026-05-07 05:00 1.82390 100.15689 27564 ft 450 kts 136°
2026-05-07 05:00 1.80080 100.17814 27841 ft 452 kts 136°
2026-05-07 05:00 1.77758 100.19950 28111 ft 454 kts 136°
2026-05-07 05:00 1.75428 100.22091 28387 ft 456 kts 137°
2026-05-07 05:01 1.73091 100.24237 28664 ft 458 kts 137°
2026-05-07 05:01 1.70735 100.26400 28936 ft 460 kts 137°
2026-05-07 05:01 1.68377 100.28565 29215 ft 461 kts 137°
2026-05-07 05:01 1.66015 100.30736 29611 ft 460 kts 137°
2026-05-07 05:02 1.63661 100.32899 30003 ft 459 kts 137°
2026-05-07 05:02 1.61308 100.35063 30335 ft 459 kts 137°
2026-05-07 05:02 1.58961 100.37221 30675 ft 458 kts 137°
2026-05-07 05:02 1.56618 100.39374 31004 ft 458 kts 137°
2026-05-07 05:03 1.54273 100.41526 31342 ft 457 kts 137°
2026-05-07 05:03 1.51933 100.43675 31698 ft 457 kts 137°
2026-05-07 05:03 1.49592 100.45824 32050 ft 456 kts 137°
2026-05-07 05:03 1.47261 100.47964 32404 ft 456 kts 137°
2026-05-07 05:04 1.44927 100.50109 32771 ft 455 kts 137°
2026-05-07 05:04 1.42603 100.52248 33138 ft 454 kts 137°
2026-05-07 05:04 1.40286 100.54381 33506 ft 454 kts 137°
2026-05-07 05:04 1.37959 100.56522 33868 ft 453 kts 137°
2026-05-07 05:05 1.35642 100.58650 34174 ft 452 kts 137°
2026-05-07 05:05 1.34109 100.60060 34386 ft 452 kts 137°
2026-05-07 05:05 1.31800 100.62185 34699 ft 451 kts 137°
2026-05-07 05:05 1.29491 100.64312 34826 ft 452 kts 137°
2026-05-07 05:06 1.24045 100.69325 34846 ft 456 kts 137°
2026-05-07 05:06 1.20156 100.72895 34848 ft 457 kts 137°
2026-05-07 05:07 1.15475 100.77189 34847 ft 457 kts 137°
2026-05-07 05:07 1.10789 100.81492 34840 ft 457 kts 137°
2026-05-07 05:08 1.06106 100.85798 34850 ft 458 kts 137°
2026-05-07 05:08 1.01415 100.90104 34851 ft 458 kts 137°
2026-05-07 05:09 0.96725 100.94414 34854 ft 458 kts 137°
2026-05-07 05:09 0.92035 100.98727 34850 ft 458 kts 137°
2026-05-07 05:10 0.87348 101.03037 34856 ft 458 kts 137°
2026-05-07 05:10 0.82650 101.07347 34855 ft 458 kts 137°
2026-05-07 05:11 0.77956 101.11653 34856 ft 458 kts 137°
2026-05-07 05:11 0.75611 101.13804 34855 ft 458 kts 137°
2026-05-07 05:12 0.74163 101.15135 34857 ft 458 kts 138°
2026-05-07 05:12 0.69471 101.19440 34854 ft 458 kts 137°
2026-05-07 05:13 0.64751 101.23783 34852 ft 458 kts 137°
2026-05-07 05:13 0.60061 101.28091 34850 ft 458 kts 137°
2026-05-07 05:14 0.55397 101.32360 34850 ft 458 kts 137°
2026-05-07 05:14 0.50702 101.36672 34849 ft 458 kts 137°
2026-05-07 05:15 0.46580 101.41491 34851 ft 459 kts 118°
2026-05-07 05:15 0.45358 101.44424 34848 ft 459 kts 106°
2026-05-07 05:15 0.44801 101.47563 34843 ft 460 kts 94°
2026-05-07 05:16 0.44947 101.50797 34842 ft 461 kts 81°
2026-05-07 05:16 0.45769 101.53889 34840 ft 462 kts 72°
2026-05-07 05:16 0.47788 101.59940 34835 ft 462 kts 72°
2026-05-07 05:17 0.49815 101.66044 34839 ft 463 kts 72°
2026-05-07 05:17 0.51846 101.72196 34846 ft 463 kts 72°
2026-05-07 05:18 0.53866 101.78314 34849 ft 463 kts 72°
2026-05-07 05:18 0.55884 101.84383 34852 ft 463 kts 72°
2026-05-07 05:19 0.57914 101.90489 34852 ft 463 kts 72°
2026-05-07 05:19 0.59956 101.96645 34852 ft 463 kts 72°
2026-05-07 05:20 0.61961 102.02713 34853 ft 463 kts 72°
2026-05-07 05:20 0.63979 102.08818 34851 ft 463 kts 72°
2026-05-07 05:21 0.67014 102.17980 34860 ft 462 kts 72°
2026-05-07 05:22 0.69033 102.24070 34857 ft 462 kts 72°
2026-05-07 05:22 0.71057 102.30170 34857 ft 462 kts 72°
2026-05-07 05:23 0.73076 102.36259 34859 ft 462 kts 72°
2026-05-07 05:23 0.75094 102.42347 34858 ft 461 kts 72°
2026-05-07 05:24 0.77110 102.48431 34859 ft 461 kts 72°
2026-05-07 05:24 0.79123 102.54509 34861 ft 461 kts 72°
2026-05-07 05:25 0.81135 102.60592 34858 ft 461 kts 72°
2026-05-07 05:25 0.83150 102.66666 34861 ft 460 kts 72°
2026-05-07 05:26 0.85169 102.72735 34859 ft 460 kts 72°
2026-05-07 05:26 0.87188 102.78808 34862 ft 460 kts 72°
2026-05-07 05:27 0.89197 102.84879 34860 ft 460 kts 72°
2026-05-07 05:27 0.91197 102.90945 34862 ft 460 kts 72°
2026-05-07 05:28 0.93203 102.97008 34866 ft 459 kts 72°
2026-05-07 05:28 0.95216 103.03062 34867 ft 459 kts 72°
2026-05-07 05:29 0.97225 103.09118 34869 ft 459 kts 72°
2026-05-07 05:29 0.99075 103.15211 34860 ft 458 kts 80°
2026-05-07 05:30 0.99275 103.21432 34750 ft 438 kts 95°
2026-05-07 05:30 0.99015 103.24436 34458 ft 431 kts 95°
2026-05-07 05:30 0.98771 103.27369 34096 ft 427 kts 95°
2026-05-07 05:30 0.98531 103.30352 33681 ft 424 kts 94°
2026-05-07 05:31 0.98300 103.33279 33220 ft 421 kts 94°
2026-05-07 05:31 0.98073 103.36177 32788 ft 417 kts 94°
2026-05-07 05:31 0.97846 103.39049 32546 ft 409 kts 94°
2026-05-07 05:31 0.97623 103.41847 32413 ft 399 kts 94°
2026-05-07 05:32 0.97403 103.44583 32295 ft 390 kts 94°
2026-05-07 05:32 0.97191 103.47226 31980 ft 387 kts 94°
2026-05-07 05:32 0.96972 103.49985 31210 ft 397 kts 94°
2026-05-07 05:32 0.96755 103.52713 30720 ft 399 kts 94°
2026-05-07 05:33 0.96532 103.55506 30319 ft 398 kts 94°
2026-05-07 05:33 0.96588 103.58253 29964 ft 395 kts 82°
2026-05-07 05:33 0.96962 103.60965 29554 ft 393 kts 82°
2026-05-07 05:33 0.97340 103.63662 29161 ft 391 kts 82°
2026-05-07 05:34 0.97718 103.66336 28784 ft 388 kts 82°
2026-05-07 05:34 0.98089 103.68967 28434 ft 386 kts 82°
2026-05-07 05:34 0.98466 103.71650 28067 ft 383 kts 82°
2026-05-07 05:34 0.98834 103.74279 27706 ft 381 kts 82°
2026-05-07 05:35 0.99195 103.76856 27351 ft 379 kts 82°
2026-05-07 05:35 0.99544 103.79352 26860 ft 373 kts 82°
2026-05-07 05:35 0.99902 103.81906 26169 ft 370 kts 82°
2026-05-07 05:35 1.00256 103.84435 25504 ft 366 kts 82°
2026-05-07 05:36 1.00598 103.86942 24850 ft 362 kts 82°
2026-05-07 05:36 1.00925 103.89421 24205 ft 358 kts 83°
2026-05-07 05:36 1.01242 103.91875 23578 ft 354 kts 83°
2026-05-07 05:36 1.01556 103.94308 22861 ft 351 kts 83°
2026-05-07 05:37 1.02070 103.96667 22155 ft 346 kts 69°
2026-05-07 05:37 1.03228 103.98750 21474 ft 342 kts 54°
2026-05-07 05:37 1.04631 104.00664 20769 ft 340 kts 55°
2026-05-07 05:37 1.06012 104.02568 20112 ft 337 kts 55°
2026-05-07 05:38 1.07373 104.04458 19459 ft 333 kts 55°
2026-05-07 05:38 1.08714 104.06329 18850 ft 330 kts 55°
2026-05-07 05:38 1.10051 104.08192 18239 ft 327 kts 55°
2026-05-07 05:38 1.11373 104.10029 17562 ft 324 kts 55°
2026-05-07 05:39 1.12687 104.11850 16885 ft 321 kts 55°
2026-05-07 05:39 1.14169 104.13472 16253 ft 319 kts 35°
2026-05-07 05:39 1.16168 104.14413 15644 ft 316 kts 20°
2026-05-07 05:39 1.18242 104.15148 14979 ft 315 kts 22°
2026-05-07 05:40 1.20265 104.15961 14371 ft 312 kts 24°
2026-05-07 05:40 1.22255 104.16811 13780 ft 310 kts 25°
2026-05-07 05:40 1.24219 104.17670 13147 ft 307 kts 25°
2026-05-07 05:40 1.26166 104.18525 12501 ft 304 kts 25°
2026-05-07 05:41 1.28096 104.19366 11875 ft 302 kts 25°
2026-05-07 05:41 1.30017 104.20195 11275 ft 300 kts 24°
2026-05-07 05:41 1.31974 104.20928 10911 ft 301 kts 13°
2026-05-07 05:41 1.34047 104.21053 10600 ft 300 kts 354°
2026-05-07 05:42 1.36091 104.20648 10269 ft 299 kts 349°
2026-05-07 05:42 1.38125 104.20207 9949 ft 298 kts 349°
2026-05-07 05:42 1.40147 104.19772 9637 ft 297 kts 349°
2026-05-07 05:42 1.42166 104.19336 9302 ft 296 kts 349°
2026-05-07 05:43 1.44172 104.18904 8975 ft 294 kts 348°
2026-05-07 05:43 1.46166 104.18477 8648 ft 293 kts 348°
2026-05-07 05:43 1.48148 104.18054 8321 ft 291 kts 349°
2026-05-07 05:43 1.50111 104.17635 7784 ft 287 kts 348°
2026-05-07 05:44 1.51968 104.16948 7183 ft 285 kts 328°
2026-05-07 05:44 1.53433 104.15639 6626 ft 282 kts 308°
2026-05-07 05:44 1.54675 104.14125 6043 ft 281 kts 310°
2026-05-07 05:44 1.55936 104.12637 5461 ft 279 kts 310°
2026-05-07 05:45 1.57193 104.11170 4968 ft 279 kts 310°
2026-05-07 05:45 1.58433 104.09692 4707 ft 276 kts 304°
2026-05-07 05:45 1.59073 104.07964 4579 ft 263 kts 270°
2026-05-07 05:45 1.58612 104.06265 4403 ft 253 kts 236°
2026-05-07 05:46 1.57275 104.05164 3878 ft 250 kts 197°
2026-05-07 05:46 1.55606 104.05079 3569 ft 237 kts 171°
2026-05-07 05:46 1.54007 104.05284 3280 ft 226 kts 176°
2026-05-07 05:46 1.52487 104.05091 3027 ft 215 kts 196°
2026-05-07 05:47 1.51118 104.04593 2770 ft 205 kts 201°
2026-05-07 05:47 1.49827 104.04053 2553 ft 200 kts 202°
2026-05-07 05:47 1.48566 104.03519 2266 ft 191 kts 202°
2026-05-07 05:47 1.47383 104.03019 2015 ft 179 kts 202°
2026-05-07 05:48 1.46260 104.02544 1797 ft 169 kts 202°
2026-05-07 05:48 1.45218 104.02104 1580 ft 158 kts 202°
2026-05-07 05:48 1.44262 104.01700 1406 ft 147 kts 202°
2026-05-07 05:48 1.43337 104.01310 1224 ft 143 kts 202°
2026-05-07 05:49 1.42416 104.00921 1041 ft 141 kts 202°
2026-05-07 05:49 1.41530 104.00547 869 ft 140 kts 201°
2026-05-07 05:49 1.40639 104.00170 690 ft 139 kts 202°
2026-05-07 05:49 1.39752 103.99793 517 ft 138 kts 202°
2026-05-07 05:50 1.38871 103.99409 318 ft 138 kts 202°
2026-05-07 05:50 1.37983 103.99047 150 ft 138 kts 200°
2026-05-07 05:50 1.37387 103.98797 54 ft 137 kts 203°
2026-05-07 05:50 1.36610 103.98468 33 ft 101 kts 202°
2026-05-07 05:51 1.36015 103.98217 29 ft 50 kts 202°
2026-05-07 05:51 1.35815 103.98136 32 ft 37 kts 201°
2026-05-07 05:51 1.35590 103.98115 34 ft 19 kts 174°
2026-05-07 05:51 1.35536 103.98197 33 ft 17 kts 61°
2026-05-07 05:52 1.35646 103.98258 33 ft 19 kts 22°
2026-05-07 05:52 1.35777 103.98314 31 ft 22 kts 24°
2026-05-07 05:52 1.35930 103.98378 33 ft 25 kts 22°
2026-05-07 05:52 1.36094 103.98446 33 ft 25 kts 23°
2026-05-07 05:53 1.36256 103.98514 33 ft 25 kts 23°
2026-05-07 05:53 1.36417 103.98582 32 ft 27 kts 22°
2026-05-07 05:53 1.36592 103.98654 33 ft 26 kts 22°
2026-05-07 05:53 1.36757 103.98725 33 ft 23 kts 24°
2026-05-07 05:54 1.36826 103.98806 33 ft 10 kts 114°
2026-05-07 05:54 1.36794 103.98877 33 ft 13 kts 110°
2026-05-07 05:54 1.36753 103.98966 33 ft 16 kts 115°
2026-05-07 05:54 1.36706 103.99075 33 ft 19 kts 111°
2026-05-07 05:55 1.36633 103.99119 33 ft 11 kts 174°
2026-05-07 05:55 1.36613 103.99121 33 ft 0 kts 182°
2026-05-07 05:55 1.36609 103.99110 33 ft 4 kts 251°
2026-05-07 05:55 1.36603 103.99070 33 ft 8 kts 263°
2026-05-07 05:56 1.36600 103.99046 33 ft 2 kts 264°
2026-05-07 05:56 1.36600 103.99042 33 ft 0 kts 264°